📊 Raw Sensor Data
Showing records 50126 to 50150 of 85,130 total
| ID | Distance (ft) | Battery V | Battery A | Int Temp (°F) | Int Humid (%) | Ext Temp (°F) | Solar V | RSSI | SNR | Time Stamp |
|---|---|---|---|---|---|---|---|---|---|---|
| 35017 | 15.0 | 3.98 | -21 | 41 | 40 | 42 | 0.00 | -79 | 8 | 03/15/2025 02:30 AM |
| 35016 | 15.0 | 3.98 | -5 | 42 | 39 | 43 | 0.00 | -79 | 8 | 03/15/2025 02:15 AM |
| 35015 | 15.0 | 4.03 | -5 | 43 | 39 | 44 | 0.00 | -80 | 7 | 03/15/2025 02:00 AM |
| 35014 | 15.0 | 3.98 | -5 | 43 | 39 | 44 | 0.00 | -78 | 8 | 03/15/2025 01:45 AM |
| 35013 | 15.0 | 3.98 | -5 | 43 | 39 | 45 | 0.00 | -79 | 8 | 03/15/2025 01:30 AM |
| 35012 | 15.0 | 4.03 | -5 | 43 | 39 | 44 | 0.00 | -79 | 7 | 03/15/2025 01:15 AM |
| 35011 | 15.0 | 3.98 | -5 | 43 | 40 | 44 | 0.00 | -78 | 7 | 03/15/2025 01:00 AM |
| 35010 | 15.0 | 3.98 | -5 | 43 | 39 | 44 | 0.00 | -79 | 8 | 03/15/2025 12:45 AM |
| 35009 | 15.0 | 4.04 | -5 | 44 | 39 | 45 | 0.00 | -79 | 7 | 03/15/2025 12:30 AM |
| 35008 | 15.0 | 3.98 | -5 | 44 | 39 | 46 | 0.00 | -78 | 7 | 03/15/2025 12:15 AM |
| 35007 | 15.0 | 4.04 | -5 | 44 | 39 | 46 | 0.00 | -81 | 8 | 03/15/2025 12:00 AM |
| 35006 | 15.0 | 3.99 | -5 | 44 | 39 | 45 | 0.00 | -80 | 7 | 03/14/2025 11:45 PM |
| 35005 | 15.0 | 4.04 | -5 | 45 | 39 | 46 | 0.00 | -80 | 7 | 03/14/2025 11:30 PM |
| 35004 | 15.1 | 3.99 | -5 | 45 | 39 | 46 | 0.00 | -80 | 7 | 03/14/2025 11:15 PM |
| 35003 | 15.0 | 4.04 | -5 | 46 | 39 | 47 | 0.00 | -81 | 8 | 03/14/2025 11:00 PM |
| 35002 | 15.0 | 3.99 | -5 | 46 | 39 | 47 | 0.00 | -79 | 8 | 03/14/2025 10:45 PM |
| 35001 | 15.0 | 3.99 | -5 | 46 | 39 | 47 | 0.00 | -81 | 8 | 03/14/2025 10:30 PM |
| 35000 | 15.1 | 3.99 | -5 | 46 | 39 | 47 | 0.10 | -80 | 8 | 03/14/2025 10:15 PM |
| 34999 | 15.1 | 3.99 | -5 | 46 | 39 | 48 | 0.00 | -80 | 8 | 03/14/2025 10:00 PM |
| 34998 | 15.0 | 3.99 | -5 | 46 | 39 | 48 | 0.00 | -81 | 8 | 03/14/2025 09:45 PM |
| 34997 | 15.0 | 3.99 | -5 | 46 | 40 | 47 | 0.00 | -80 | 8 | 03/14/2025 09:30 PM |
| 34996 | 15.0 | 3.99 | -5 | 46 | 40 | 47 | 0.00 | -81 | 7 | 03/14/2025 09:15 PM |
| 34995 | 15.1 | 3.99 | -5 | 46 | 40 | 46 | 0.00 | -80 | 8 | 03/14/2025 09:00 PM |
| 34994 | 15.0 | 4.00 | -5 | 46 | 40 | 47 | 0.00 | -80 | 8 | 03/14/2025 08:45 PM |
| 34993 | 15.1 | 4.00 | -5 | 46 | 40 | 47 | 0.00 | -80 | 6 | 03/14/2025 08:30 PM |